FW9818 Weather Reports


time (UTC)temp
C
wind
direction
speed
KPH
gust
KPH
rain 1hr
cm
rain 24hr
cm
rain mn
cm
humidity
%
barometer
mb
20260506234509 9 323 0.0 3.2 0.00 0.05 0.00 74 1012.8
20260506233123 10 329 0.0 3.2 0.00 0.05 0.00 74 1012.6
20260506231514 10 324 0.0 3.2 0.00 0.05 0.00 74 1012.6
20260506230134 10 325 1.6 3.2 0.00 0.05 0.00 74 1012.5
20260506224508 10 343 0.0 3.2 0.00 0.10 0.00 74 1012.3
20260506223055 10 339 0.0 4.8 0.00 0.10 0.00 73 1012.2
20260506221518 10 335 1.6 3.2 0.00 0.10 0.00 73 1012.2
20260506214559 10 347 1.6 3.2 0.00 0.15 0.10 72 1012.1
20260506213142 10 355 1.6 4.8 0.00 0.15 0.10 71 1012.0
20260506211632 10 360 1.6 6.4 0.00 0.15 0.10 70 1011.9
20260506210103 10 339 3.2 6.4 0.00 0.15 0.10 69 1011.8
20260506204519 10 55 3.2 6.4 0.00 0.18 0.10 69 1011.7
20260506203007 10 29 3.2 8.0 0.00 0.18 0.10 68 1011.5
20260506201553 10 39 4.8 11.3 0.00 0.18 0.10 69 1011.4
20260506200132 10 45 1.6 6.4 0.00 0.18 0.10 70 1011.3
20260506194629 10 46 1.6 6.4 0.00 0.18 0.10 70 1011.3
20260506193124 10 46 3.2 14.5 0.00 0.18 0.10 70 1011.2
20260506191621 10 89 4.8 8.0 0.00 0.18 0.10 69 1011.0
20260506190120 10 347 4.8 17.7 0.00 0.18 0.10 68 1010.8
20260506184609 11 335 6.4 14.5 0.00 0.20 0.10 66 1010.6
20260506183110 11 85 6.4 16.1 0.00 0.20 0.10 65 1010.5
20260506181600 11 13 6.4 14.5 0.00 0.20 0.10 63 1010.3
20260506180015 12 28 12.9 20.9 0.00 0.20 0.10 60 1010.1
20260506174546 12 299 6.4 16.1 0.00 0.20 0.10 61 1009.8
20260506173138 12 18 6.4 17.7 0.00 0.20 0.10 58 1009.6
20260506171502 12 42 4.8 17.7 0.00 0.20 0.10 58 1009.4
20260506170128 13 4 12.9 20.9 0.00 0.20 0.10 55 1009.2
20260506164611 13 13 9.7 16.1 0.00 0.20 0.10 57 1009.0
20260506163116 13 331 9.7 19.3 0.00 0.20 0.10 58 1008.9
20260506161605 13 303 9.7 19.3 0.00 0.20 0.10 60 1008.9
20260506154622 13 56 8.0 17.7 0.00 0.23 0.10 60 1008.7
20260506153124 14 35 6.4 16.1 0.00 0.23 0.10 60 1008.8
20260506151612 14 23 6.4 12.9 0.00 0.23 0.10 58 1008.7
20260506150106 13 140 6.4 20.9 0.00 0.23 0.10 58 1008.6
20260506144608 13 33 9.7 22.5 0.00 0.23 0.10 56 1008.6
20260506143110 14 4 6.4 16.1 0.00 0.23 0.10 56 1008.5
20260506141554 14 48 4.8 20.9 0.00 0.23 0.10 58 1008.6
20260506140007 15 27 8.0 17.7 0.00 0.23 0.10 59 1008.6
20260506134628 15 323 8.0 17.7 0.00 0.23 0.10 59 1008.5
20260506133129 14 52 6.4 12.9 0.00 0.23 0.10 62 1008.5
20260506131617 14 323 1.6 12.9 0.00 0.23 0.10 63 1008.5
20260506130118 13 345 4.8 9.7 0.00 0.23 0.10 66 1008.5
20260506124606 13 27 4.8 14.5 0.00 0.23 0.10 67 1008.5
20260506123116 13 341 4.8 17.7 0.00 0.23 0.10 66 1008.5
20260506121610 13 18 6.4 11.3 0.00 0.23 0.10 67 1008.5
20260506120122 13 330 8.0 12.9 0.00 0.23 0.10 68 1008.4
20260506114607 12 344 8.0 16.1 0.00 0.23 0.10 68 1008.4
20260506113100 12 348 9.7 14.5 0.00 0.23 0.10 68 1008.3
20260506111518 13 352 9.7 20.9 0.00 0.23 0.10 67 1008.3
20260506110137 13 337 6.4 20.9 0.00 0.23 0.10 69 1008.3
20260506104623 13 23 8.0 16.1 0.00 0.23 0.10 73 1008.5
20260506103131 12 331 9.7 14.5 0.00 0.23 0.10 77 1008.4
20260506101611 11 39 6.4 11.3 0.00 0.23 0.10 81 1008.4
20260506094624 11 328 4.8 14.5 0.00 0.23 0.10 86 1008.4
20260506093119 10 323 8.0 16.1 0.00 0.23 0.10 88 1008.3
20260506091609 10 335 8.0 14.5 0.00 0.23 0.10 88 1008.3
20260506090033 10 343 4.8 9.7 0.00 0.23 0.10 88 1008.2
20260506084614 10 339 3.2 9.7 0.00 0.23 0.10 88 1008.2
20260506083051 9 319 6.4 11.3 0.00 0.23 0.10 88 1008.1
20260506081510 9 310 1.6 9.7 0.00 0.23 0.10 88 1008.0
20260506080142 8 308 6.4 12.9 0.00 0.23 0.10 88 1008.0
20260506073127 8 13 6.4 16.1 0.00 0.23 0.10 87 1007.9
20260506071616 8 342 6.4 12.9 0.00 0.23 0.10 87 1007.7
20260506070117 8 333 4.8 16.1 0.00 0.23 0.10 87 1007.8
20260506061559 8 337 3.2 12.9 0.00 0.23 0.10 86 1007.6
20260506050138 8 342 6.4 12.9 0.03 0.23 0.10 86 1007.3
20260506044621 8 327 8.0 17.7 0.00 0.20 0.08 85 1007.4
20260506043119 8 352 6.4 12.9 0.00 0.20 0.08 85 1007.4
20260506041614 8 339 4.8 12.9 0.00 0.20 0.08 85 1007.3
20260506040003 8 347 4.8 14.5 0.00 0.20 0.08 85 1007.3
20260506034625 8 18 4.8 11.3 0.00 0.20 0.08 85 1007.4
20260506033132 8 338 4.8 12.9 0.00 0.20 0.08 85 1007.4
20260506031621 8 338 3.2 6.4 0.03 0.20 0.08 85 1007.5
20260506030124 8 359 3.2 9.7 0.03 0.20 0.08 85 1007.5
20260506024610 8 355 1.6 8.0 0.03 0.20 0.08 85 1007.6
20260506023116 8 341 4.8 14.5 0.03 0.20 0.08 85 1007.7
20260506021610 8 349 6.4 14.5 0.00 0.18 0.05 85 1007.7
20260506020112 8 359 3.2 8.0 0.00 0.18 0.05 86 1007.7
20260506014601 8 352 4.8 9.7 0.00 0.18 0.05 86 1007.7
20260506013106 8 352 4.8 12.9 0.00 0.18 0.05 86 1007.8
20260506011605 8 358 6.4 14.5 0.00 0.18 0.05 86 1007.8
20260506010055 8 13 3.2 8.0 0.00 0.18 0.05 86 1007.9
20260506004557 8 341 3.2 8.0 0.00 0.20 0.05 86 1008.0
20260506003013 8 2 4.8 8.0 0.03 0.20 0.05 86 1008.1
20260506001543 8 349 4.8 9.7 0.03 0.20 0.05 86 1008.2
20260506000140 9 356 4.8 11.3 0.03 0.20 0.05 86 1008.2
20260505234625 9 13 6.4 9.7 0.03 0.25 0.05 87 1008.3